EWG6J EDDH-ENBR

Flight info

Callsign EWG6J
Flight time 1h 10m
Altitude 38000
Route ELSOB3C ELSOB Y348 OMWEG DCT BADOS DCT GIKOG DCT ATTUS P992 LINVI DCT BADAB
Aircraft A320/M-SDE2E3FGIJ1RWXYZHB1/HB1

Departure

Time 2026-05-06 10:35
Airport Hamburg Helmut Schmidt Airport (EDDH)

Arrival

Time 2026-05-06 11:45
Airport Bergen Airport, Flesland (ENBR)
Time Latitude Longitude Altitude Speed Heading
2026-05-06 09:47 53.63331 10.00364 49 ft 0 kts 86°
2026-05-06 10:20 53.63331 10.00350 48 ft 4 kts 86°
2026-05-06 10:20 53.63329 10.00305 46 ft 3 kts 86°
2026-05-06 10:21 53.63329 10.00269 45 ft 4 kts 104°
2026-05-06 10:21 53.63341 10.00236 45 ft 4 kts 159°
2026-05-06 10:21 53.63352 10.00230 48 ft 0 kts 176°
2026-05-06 10:26 53.63347 10.00231 48 ft 2 kts 176°
2026-05-06 10:26 53.63325 10.00234 48 ft 4 kts 175°
2026-05-06 10:26 53.63289 10.00238 48 ft 9 kts 175°
2026-05-06 10:26 53.63199 10.00250 48 ft 17 kts 176°
2026-05-06 10:27 53.63094 10.00262 48 ft 11 kts 178°
2026-05-06 10:27 53.63025 10.00217 45 ft 10 kts 209°
2026-05-06 10:27 53.62964 10.00152 46 ft 11 kts 213°
2026-05-06 10:27 53.62891 10.00071 48 ft 12 kts 215°
2026-05-06 10:28 53.62827 9.99981 47 ft 12 kts 213°
2026-05-06 10:28 53.62753 9.99913 46 ft 13 kts 208°
2026-05-06 10:28 53.62670 9.99835 45 ft 17 kts 209°
2026-05-06 10:28 53.62626 9.99660 47 ft 16 kts 258°
2026-05-06 10:29 53.62607 9.99486 44 ft 14 kts 259°
2026-05-06 10:29 53.62589 9.99329 47 ft 13 kts 259°
2026-05-06 10:29 53.62573 9.99187 47 ft 12 kts 259°
2026-05-06 10:29 53.62558 9.99056 47 ft 11 kts 259°
2026-05-06 10:30 53.62545 9.98938 47 ft 10 kts 259°
2026-05-06 10:30 53.62530 9.98808 47 ft 14 kts 259°
2026-05-06 10:30 53.62507 9.98601 47 ft 21 kts 260°
2026-05-06 10:30 53.62478 9.98342 44 ft 23 kts 259°
2026-05-06 10:31 53.62437 9.98122 46 ft 18 kts 238°
2026-05-06 10:31 53.62367 9.97966 47 ft 16 kts 228°
2026-05-06 10:31 53.62298 9.97833 47 ft 14 kts 231°
2026-05-06 10:31 53.62240 9.97706 47 ft 13 kts 233°
2026-05-06 10:32 53.62185 9.97594 47 ft 12 kts 230°
2026-05-06 10:32 53.62134 9.97492 47 ft 11 kts 230°
2026-05-06 10:32 53.62072 9.97366 47 ft 17 kts 230°
2026-05-06 10:32 53.61980 9.97179 47 ft 24 kts 230°
2026-05-06 10:33 53.61893 9.97004 47 ft 18 kts 230°
2026-05-06 10:33 53.61818 9.96852 47 ft 16 kts 230°
2026-05-06 10:33 53.61749 9.96713 47 ft 15 kts 230°
2026-05-06 10:33 53.61687 9.96585 47 ft 14 kts 232°
2026-05-06 10:34 53.61683 9.96446 46 ft 12 kts 306°
2026-05-06 10:34 53.61770 9.96418 46 ft 15 kts
2026-05-06 10:34 53.61863 9.96451 45 ft 13 kts 38°
2026-05-06 10:34 53.61928 9.96577 44 ft 16 kts 50°
2026-05-06 10:35 53.62084 9.96894 41 ft 68 kts 50°
2026-05-06 10:35 53.62533 9.97801 41 ft 130 kts 50°
2026-05-06 10:35 53.63172 9.99121 360 ft 152 kts 51°
2026-05-06 10:35 53.63839 10.00542 1110 ft 157 kts 51°
2026-05-06 10:36 53.64549 10.02049 1665 ft 179 kts 51°
2026-05-06 10:36 53.65405 10.03802 2336 ft 201 kts 50°
2026-05-06 10:36 53.66309 10.05594 3516 ft 199 kts 52°
2026-05-06 10:36 53.67202 10.07392 4498 ft 202 kts 52°
2026-05-06 10:37 53.68137 10.09231 5190 ft 209 kts 46°
2026-05-06 10:37 53.69407 10.10422 5972 ft 220 kts 14°
2026-05-06 10:37 53.70962 10.10224 6649 ft 238 kts 342°
2026-05-06 10:37 53.72320 10.08379 7046 ft 270 kts 307°
2026-05-06 10:38 53.73326 10.05561 7614 ft 287 kts 299°
2026-05-06 10:38 53.74219 10.02505 8490 ft 291 kts 295°
2026-05-06 10:38 53.74770 9.99217 9384 ft 295 kts 275°
2026-05-06 10:38 53.74697 9.95767 9748 ft 293 kts 257°
2026-05-06 10:39 53.74045 9.92507 9846 ft 302 kts 245°
2026-05-06 10:39 53.73158 9.89084 9961 ft 332 kts 246°
2026-05-06 10:39 53.72384 9.85309 10437 ft 347 kts 259°
2026-05-06 10:39 53.72374 9.81212 11136 ft 354 kts 280°
2026-05-06 10:40 53.73258 9.77340 11871 ft 359 kts 302°
2026-05-06 10:40 53.74972 9.74265 12615 ft 363 kts 325°
2026-05-06 10:40 53.77220 9.72303 13376 ft 366 kts 336°
2026-05-06 10:40 53.79564 9.70555 14092 ft 370 kts 336°
2026-05-06 10:41 53.81931 9.68793 14742 ft 374 kts 335°
2026-05-06 10:41 53.84329 9.67002 15375 ft 379 kts 335°
2026-05-06 10:41 53.86750 9.65181 16017 ft 383 kts 334°
2026-05-06 10:41 53.89183 9.63335 16738 ft 384 kts 334°
2026-05-06 10:42 53.91634 9.61469 17378 ft 388 kts 334°
2026-05-06 10:42 53.94108 9.59591 18007 ft 391 kts 333°
2026-05-06 10:42 53.96604 9.57695 18538 ft 396 kts 334°
2026-05-06 10:42 53.99132 9.55774 19056 ft 399 kts 333°
2026-05-06 10:43 54.01678 9.53837 19571 ft 403 kts 333°
2026-05-06 10:43 54.04236 9.51827 20099 ft 407 kts 332°
2026-05-06 10:43 54.06801 9.49716 20570 ft 411 kts 332°
2026-05-06 10:44 54.11965 9.45333 21550 ft 418 kts 331°
2026-05-06 10:44 54.14577 9.43104 22085 ft 421 kts 330°
2026-05-06 10:44 54.17206 9.40874 22623 ft 423 kts 331°
2026-05-06 10:44 54.19841 9.38652 23112 ft 426 kts 331°
2026-05-06 10:45 54.22478 9.36434 23559 ft 429 kts 331°
2026-05-06 10:45 54.25201 9.34142 23950 ft 432 kts 331°
2026-05-06 10:45 54.27875 9.31889 24334 ft 435 kts 331°
2026-05-06 10:45 54.30603 9.29589 24706 ft 438 kts 331°
2026-05-06 10:46 54.33343 9.27275 25086 ft 441 kts 331°
2026-05-06 10:46 54.36101 9.24943 25457 ft 444 kts 331°
2026-05-06 10:46 54.38885 9.22584 25864 ft 447 kts 331°
2026-05-06 10:46 54.41677 9.20217 26285 ft 450 kts 330°
2026-05-06 10:47 54.44496 9.17822 26663 ft 453 kts 331°
2026-05-06 10:47 54.47330 9.15405 26876 ft 455 kts 330°
2026-05-06 10:47 54.50160 9.12984 27014 ft 457 kts 330°
2026-05-06 10:47 54.53020 9.10538 27376 ft 460 kts 330°
2026-05-06 10:48 54.55897 9.08078 27717 ft 462 kts 330°
2026-05-06 10:48 54.58788 9.05602 28044 ft 465 kts 330°
2026-05-06 10:48 54.61695 9.03115 28360 ft 468 kts 330°
2026-05-06 10:48 54.64620 9.00607 28681 ft 470 kts 330°
2026-05-06 10:49 54.67560 8.98073 28998 ft 473 kts 330°
2026-05-06 10:49 54.70505 8.95505 29298 ft 475 kts 329°
2026-05-06 10:49 54.73457 8.92902 29592 ft 477 kts 329°
2026-05-06 10:49 54.76377 8.90313 29909 ft 479 kts 329°
2026-05-06 10:50 54.79345 8.87681 30274 ft 479 kts 329°
2026-05-06 10:50 54.82309 8.85060 30627 ft 478 kts 329°
2026-05-06 10:50 54.85278 8.82436 30971 ft 478 kts 329°
2026-05-06 10:50 54.88248 8.79816 31308 ft 479 kts 329°
2026-05-06 10:51 54.91278 8.77400 31640 ft 481 kts 335°
2026-05-06 10:51 54.94400 8.75299 31980 ft 482 kts 335°
2026-05-06 10:51 54.97521 8.73199 32465 ft 478 kts 334°
2026-05-06 10:51 55.00609 8.71118 33028 ft 473 kts 334°
2026-05-06 10:52 55.03666 8.69047 33501 ft 471 kts 334°
2026-05-06 10:52 55.06715 8.66977 33918 ft 469 kts 334°
2026-05-06 10:52 55.09751 8.64913 34252 ft 468 kts 334°
2026-05-06 10:52 55.12781 8.62849 34574 ft 467 kts 334°
2026-05-06 10:53 55.15808 8.60785 34874 ft 466 kts 334°
2026-05-06 10:53 55.18827 8.58725 35173 ft 466 kts 334°
2026-05-06 10:53 55.21839 8.56664 35462 ft 465 kts 334°
2026-05-06 10:53 55.24858 8.54592 35754 ft 465 kts 334°
2026-05-06 10:54 55.27871 8.52520 36030 ft 465 kts 334°
2026-05-06 10:54 55.30886 8.50444 36300 ft 464 kts 334°
2026-05-06 10:54 55.33851 8.48399 36566 ft 464 kts 334°
2026-05-06 10:54 55.36854 8.46325 36833 ft 463 kts 334°
2026-05-06 10:55 55.39849 8.44251 37095 ft 462 kts 334°
2026-05-06 10:55 55.42838 8.42179 37335 ft 462 kts 334°
2026-05-06 10:55 55.45833 8.40103 37588 ft 461 kts 334°
2026-05-06 10:55 55.48816 8.38031 37831 ft 461 kts 334°
2026-05-06 10:56 55.51802 8.35950 37974 ft 461 kts 334°
2026-05-06 10:56 55.57770 8.31765 37964 ft 461 kts 334°
2026-05-06 10:57 55.63722 8.27550 37975 ft 461 kts 333°
2026-05-06 10:57 55.69634 8.23164 37975 ft 460 kts 333°
2026-05-06 10:58 55.75500 8.18749 37975 ft 461 kts 333°
2026-05-06 10:58 55.81413 8.14316 37980 ft 461 kts 333°
2026-05-06 10:59 55.87333 8.09886 37996 ft 461 kts 333°
2026-05-06 10:59 55.93250 8.05446 37998 ft 461 kts 333°
2026-05-06 11:00 55.99171 8.00997 37998 ft 462 kts 333°
2026-05-06 11:00 56.05098 7.96533 38051 ft 462 kts 333°
2026-05-06 11:01 56.10996 7.92060 38004 ft 460 kts 332°
2026-05-06 11:01 56.16883 7.87576 38000 ft 460 kts 332°
2026-05-06 11:02 56.22778 7.83083 38007 ft 460 kts 332°
2026-05-06 11:02 56.28634 7.78609 38005 ft 460 kts 332°
2026-05-06 11:03 56.34297 7.74256 38031 ft 460 kts 332°
2026-05-06 11:03 56.39747 7.70045 38032 ft 460 kts 332°
2026-05-06 11:04 56.44496 7.66376 38031 ft 460 kts 332°
2026-05-06 11:04 56.50375 7.61824 38033 ft 460 kts 332°
2026-05-06 11:05 56.56233 7.57263 38031 ft 460 kts 332°
2026-05-06 11:05 56.62112 7.52667 38078 ft 460 kts 332°
2026-05-06 11:06 56.67974 7.48086 38023 ft 458 kts 332°
2026-05-06 11:06 56.73830 7.43501 38032 ft 458 kts 332°
2026-05-06 11:07 56.79688 7.38887 38034 ft 458 kts 331°
2026-05-06 11:07 56.85499 7.34300 38035 ft 458 kts 331°
2026-05-06 11:08 56.91344 7.29651 38060 ft 458 kts 331°
2026-05-06 11:08 56.97188 7.24983 38053 ft 458 kts 331°
2026-05-06 11:09 57.03046 7.21052 38047 ft 463 kts 338°
2026-05-06 11:09 57.09220 7.17677 38043 ft 463 kts 338°
2026-05-06 11:10 57.15348 7.14312 38039 ft 463 kts 338°
2026-05-06 11:10 57.21519 7.10892 38028 ft 462 kts 338°
2026-05-06 11:11 57.27673 7.07488 38024 ft 462 kts 338°
2026-05-06 11:11 57.33786 7.04089 38028 ft 462 kts 338°
2026-05-06 11:12 57.39895 7.00675 38031 ft 463 kts 338°
2026-05-06 11:12 57.46058 6.97215 38070 ft 463 kts 338°
2026-05-06 11:13 57.52224 6.93746 38057 ft 463 kts 338°
2026-05-06 11:13 57.58394 6.90258 38050 ft 463 kts 338°
2026-05-06 11:14 57.64568 6.86759 38055 ft 464 kts 338°
2026-05-06 11:14 57.70749 6.83251 38049 ft 464 kts 338°
2026-05-06 11:15 57.76917 6.79729 38056 ft 463 kts 338°
2026-05-06 11:15 57.83075 6.76205 38054 ft 462 kts 338°
2026-05-06 11:16 57.89230 6.72663 38045 ft 462 kts 338°
2026-05-06 11:16 57.95343 6.69134 38057 ft 462 kts 338°
2026-05-06 11:17 58.01492 6.65577 38045 ft 462 kts 338°
2026-05-06 11:17 58.07639 6.62000 38056 ft 462 kts 338°
2026-05-06 11:18 58.13779 6.58415 38045 ft 462 kts 338°
2026-05-06 11:18 58.19924 6.54828 38041 ft 462 kts 338°
2026-05-06 11:19 58.26079 6.51210 38038 ft 462 kts 337°
2026-05-06 11:19 58.32229 6.47589 38064 ft 462 kts 338°
2026-05-06 11:20 58.38335 6.43982 38054 ft 462 kts 337°
2026-05-06 11:20 58.44483 6.40329 38046 ft 462 kts 337°
2026-05-06 11:21 58.50621 6.36663 38043 ft 462 kts 337°
2026-05-06 11:21 58.56767 6.32989 38043 ft 462 kts 337°
2026-05-06 11:22 58.62907 6.29311 38042 ft 462 kts 337°
2026-05-06 11:22 58.69002 6.25634 38064 ft 462 kts 337°
2026-05-06 11:23 58.75165 6.21898 38066 ft 462 kts 337°
2026-05-06 11:23 58.81288 6.18184 38061 ft 461 kts 337°
2026-05-06 11:24 58.87372 6.14487 38062 ft 461 kts 337°
2026-05-06 11:24 58.93482 6.10756 38052 ft 459 kts 337°
2026-05-06 11:25 58.99560 6.07013 38049 ft 458 kts 337°
2026-05-06 11:25 59.02601 6.05130 37841 ft 459 kts 337°
2026-05-06 11:25 59.05638 6.03253 37579 ft 458 kts 336°
2026-05-06 11:25 59.08739 6.01688 37306 ft 463 kts 343°
2026-05-06 11:26 59.11909 6.00502 37047 ft 463 kts 343°
2026-05-06 11:26 59.15071 5.99311 36783 ft 463 kts 343°
2026-05-06 11:26 59.18228 5.98115 36572 ft 463 kts 343°
2026-05-06 11:26 59.21397 5.96907 36041 ft 464 kts 342°
2026-05-06 11:27 59.24578 5.95684 35123 ft 469 kts 342°
2026-05-06 11:27 59.27794 5.94442 34259 ft 473 kts 341°
2026-05-06 11:27 59.31036 5.93186 33197 ft 478 kts 341°
2026-05-06 11:27 59.34250 5.91951 32248 ft 478 kts 341°
2026-05-06 11:28 59.37524 5.90702 31389 ft 477 kts 341°
2026-05-06 11:28 59.40787 5.89461 30449 ft 478 kts 341°
2026-05-06 11:28 59.44078 5.88361 29357 ft 484 kts 346°
2026-05-06 11:28 59.47449 5.87770 28337 ft 486 kts 347°
2026-05-06 11:29 59.50850 5.87217 27343 ft 483 kts 347°
2026-05-06 11:29 59.54147 5.86689 26460 ft 480 kts 347°
2026-05-06 11:29 59.57456 5.86167 25680 ft 473 kts 347°
2026-05-06 11:29 59.60715 5.85655 24921 ft 466 kts 347°
2026-05-06 11:30 59.63919 5.85148 24166 ft 459 kts 347°
2026-05-06 11:30 59.67081 5.84644 23392 ft 453 kts 347°
2026-05-06 11:30 59.70201 5.84129 22609 ft 446 kts 347°
2026-05-06 11:30 59.73270 5.83615 21873 ft 440 kts 347°
2026-05-06 11:31 59.76300 5.83105 21213 ft 434 kts 347°
2026-05-06 11:31 59.79281 5.82588 20505 ft 427 kts 346°
2026-05-06 11:31 59.82108 5.81342 19845 ft 407 kts 332°
2026-05-06 11:31 59.84738 5.79381 19170 ft 402 kts 332°
2026-05-06 11:32 59.87351 5.77413 18438 ft 402 kts 332°
2026-05-06 11:32 59.89958 5.75429 17620 ft 400 kts 332°
2026-05-06 11:32 59.92546 5.73447 16783 ft 397 kts 332°
2026-05-06 11:32 59.95113 5.71471 15982 ft 394 kts 333°
2026-05-06 11:33 59.97660 5.69512 15201 ft 391 kts 333°
2026-05-06 11:33 60.00200 5.67561 14434 ft 389 kts 334°
2026-05-06 11:33 60.02713 5.65639 13787 ft 383 kts 334°
2026-05-06 11:33 60.05199 5.63741 12922 ft 384 kts 335°
2026-05-06 11:34 60.07711 5.61800 11916 ft 387 kts 336°
2026-05-06 11:34 60.10182 5.59875 11485 ft 376 kts 336°
2026-05-06 11:34 60.12582 5.58010 11073 ft 365 kts 336°
2026-05-06 11:34 60.14921 5.56202 10666 ft 355 kts 337°
2026-05-06 11:35 60.17190 5.54447 10250 ft 346 kts 337°
2026-05-06 11:35 60.19384 5.52751 9895 ft 326 kts 337°
2026-05-06 11:35 60.21420 5.51171 9590 ft 302 kts 337°
2026-05-06 11:35 60.23326 5.49684 9177 ft 286 kts 337°
2026-05-06 11:36 60.25152 5.48258 8772 ft 280 kts 336°
2026-05-06 11:36 60.26954 5.46843 8149 ft 284 kts 336°
2026-05-06 11:36 60.28780 5.45405 7554 ft 276 kts 336°
2026-05-06 11:36 60.30526 5.44040 7145 ft 263 kts 336°
2026-05-06 11:37 60.32199 5.42727 6728 ft 252 kts 336°
2026-05-06 11:37 60.33813 5.41465 6328 ft 248 kts 336°
2026-05-06 11:37 60.35415 5.40213 5983 ft 246 kts 336°
2026-05-06 11:37 60.37002 5.38965 5626 ft 244 kts 336°
2026-05-06 11:38 60.38579 5.37714 5290 ft 242 kts 336°
2026-05-06 11:38 60.40140 5.36483 4948 ft 240 kts 336°
2026-05-06 11:38 60.41693 5.35263 4598 ft 239 kts 336°
2026-05-06 11:38 60.43244 5.34048 4191 ft 237 kts 336°
2026-05-06 11:39 60.44750 5.32863 3971 ft 227 kts 336°
2026-05-06 11:39 60.46178 5.31737 3954 ft 214 kts 335°
2026-05-06 11:39 60.47515 5.30630 3952 ft 200 kts 328°
2026-05-06 11:39 60.48538 5.28937 3967 ft 186 kts 306°
2026-05-06 11:40 60.49153 5.26700 3986 ft 181 kts 286°
2026-05-06 11:40 60.49325 5.24196 3979 ft 179 kts 266°
2026-05-06 11:40 60.49044 5.21748 3984 ft 180 kts 246°
2026-05-06 11:40 60.48436 5.19527 3958 ft 181 kts 239°
2026-05-06 11:41 60.47568 5.17631 3680 ft 188 kts 217°
2026-05-06 11:41 60.46369 5.16540 3465 ft 193 kts 195°
2026-05-06 11:41 60.45027 5.16509 3244 ft 192 kts 173°
2026-05-06 11:41 60.43759 5.16944 2978 ft 179 kts 173°
2026-05-06 11:42 60.42565 5.17352 2732 ft 170 kts 174°
2026-05-06 11:42 60.41429 5.17736 2493 ft 161 kts 174°
2026-05-06 11:42 60.40354 5.18100 2276 ft 153 kts 174°
2026-05-06 11:42 60.39323 5.18448 2061 ft 147 kts 175°
2026-05-06 11:43 60.38327 5.18785 1870 ft 143 kts 174°
2026-05-06 11:43 60.37351 5.19115 1665 ft 142 kts 174°
2026-05-06 11:43 60.36403 5.19435 1479 ft 135 kts 173°
2026-05-06 11:44 60.34545 5.20063 1079 ft 135 kts 174°
2026-05-06 11:44 60.33620 5.20382 875 ft 135 kts 174°
2026-05-06 11:44 60.32696 5.20694 666 ft 134 kts 173°
2026-05-06 11:44 60.31784 5.20998 461 ft 132 kts 173°
2026-05-06 11:45 60.30879 5.21299 304 ft 131 kts 171°
2026-05-06 11:45 60.29978 5.21606 168 ft 128 kts 171°
2026-05-06 11:45 60.29217 5.21856 159 ft 88 kts 170°
2026-05-06 11:45 60.28794 5.21998 162 ft 25 kts 167°
2026-05-06 11:46 60.28665 5.22093 162 ft 15 kts 115°
2026-05-06 11:46 60.28668 5.22228 163 ft 7 kts 79°
2026-05-06 11:46 60.28675 5.22302 164 ft 4 kts 76°
2026-05-06 11:46 60.28684 5.22383 165 ft 8 kts 84°
2026-05-06 11:47 60.28714 5.22473 166 ft 12 kts 14°
2026-05-06 11:47 60.28815 5.22434 167 ft 14 kts 353°
2026-05-06 11:47 60.28897 5.22408 167 ft 11 kts 351°
2026-05-06 11:47 60.28946 5.22411 167 ft 2 kts 69°
2026-05-06 11:48 60.28946 5.22435 168 ft 6 kts 91°
2026-05-06 11:48 60.28939 5.22487 170 ft 2 kts 107°
2026-05-06 11:48 60.28936 5.22510 172 ft 5 kts 107°
2026-05-06 11:48 60.28933 5.22530 173 ft 3 kts 107°
2026-05-06 11:49 60.28929 5.22554 173 ft 1 kts 107°
2026-05-06 11:49 60.28929 5.22555 173 ft 0 kts 107°